Year,Month,Day,Hour,Minute,Value (Times are PST for temperature in C)
2015,03,09,00,00,6.30
2015,03,09,00,01,6.30
2015,03,09,00,02,6.30
2015,03,09,00,03,6.30
2015,03,09,00,04,6.30
2015,03,09,00,05,6.40
2015,03,09,00,06,6.30
2015,03,09,00,07,6.40
2015,03,09,00,08,6.30
2015,03,09,00,09,6.30
2015,03,09,00,10,6.30
2015,03,09,00,11,6.30
2015,03,09,00,12,6.30
2015,03,09,00,13,6.30
2015,03,09,00,14,6.30
2015,03,09,00,15,6.30
2015,03,09,00,16,6.30
2015,03,09,00,17,6.30
2015,03,09,00,18,6.30
2015,03,09,00,19,6.30
2015,03,09,00,20,6.30
2015,03,09,00,21,6.30
2015,03,09,00,22,6.30
2015,03,09,00,23,6.30
2015,03,09,00,24,6.30
2015,03,09,00,25,6.30
2015,03,09,00,26,6.30
2015,03,09,00,27,6.30
2015,03,09,00,28,6.30
2015,03,09,00,29,6.30
2015,03,09,00,30,6.20
2015,03,09,00,31,6.20
2015,03,09,00,32,6.20
2015,03,09,00,33,6.20
2015,03,09,00,34,6.20
2015,03,09,00,35,6.20
2015,03,09,00,36,6.20
2015,03,09,00,37,6.20
2015,03,09,00,38,6.20
2015,03,09,00,39,6.20
2015,03,09,00,40,6.20
2015,03,09,00,41,6.20
2015,03,09,00,42,6.20
2015,03,09,00,43,6.30
2015,03,09,00,44,6.30
2015,03,09,00,45,6.30
2015,03,09,00,46,6.30
2015,03,09,00,47,6.30
2015,03,09,00,48,6.30
2015,03,09,00,49,6.30
2015,03,09,00,50,6.30
2015,03,09,00,51,6.30
2015,03,09,00,52,6.30
2015,03,09,00,53,6.30
2015,03,09,00,54,6.30
2015,03,09,00,55,6.30
2015,03,09,00,56,6.30
2015,03,09,00,57,6.30
2015,03,09,00,58,6.20
2015,03,09,00,59,6.20
2015,03,09,01,00,6.20
2015,03,09,01,01,6.20
2015,03,09,01,02,6.20
2015,03,09,01,03,6.20
2015,03,09,01,04,6.20
2015,03,09,01,05,6.20
2015,03,09,01,06,6.20
2015,03,09,01,07,6.20
2015,03,09,01,08,6.20
2015,03,09,01,09,6.20
2015,03,09,01,10,6.20
2015,03,09,01,11,6.20
2015,03,09,01,12,6.20
2015,03,09,01,13,6.20
2015,03,09,01,14,6.20
2015,03,09,01,15,6.20
2015,03,09,01,16,6.10
2015,03,09,01,17,6.10
2015,03,09,01,18,6.10
2015,03,09,01,19,6.10
2015,03,09,01,20,6.00
2015,03,09,01,21,6.00
2015,03,09,01,22,6.10
2015,03,09,01,23,6.00
2015,03,09,01,24,6.00
2015,03,09,01,25,6.00
2015,03,09,01,26,6.00
2015,03,09,01,27,6.00
2015,03,09,01,28,6.00
2015,03,09,01,29,6.00
2015,03,09,01,30,6.00
2015,03,09,01,31,6.00
2015,03,09,01,32,6.00
2015,03,09,01,33,6.00
2015,03,09,01,34,6.00
2015,03,09,01,35,6.00
2015,03,09,01,36,6.10
2015,03,09,01,37,6.10
2015,03,09,01,38,6.10
2015,03,09,01,39,6.20
2015,03,09,01,40,6.20
2015,03,09,01,41,6.20
2015,03,09,01,42,6.30
2015,03,09,01,43,6.30
2015,03,09,01,44,6.20
2015,03,09,01,45,6.20
2015,03,09,01,46,6.20
2015,03,09,01,47,6.20
2015,03,09,01,48,6.20
2015,03,09,01,49,6.20
2015,03,09,01,50,6.20
2015,03,09,01,51,6.20
2015,03,09,01,52,6.20
2015,03,09,01,53,6.20
2015,03,09,01,54,6.20
2015,03,09,01,55,6.20
2015,03,09,01,56,6.20
2015,03,09,01,57,6.20
2015,03,09,01,58,6.20
2015,03,09,01,59,6.20
2015,03,09,02,00,6.20
2015,03,09,02,01,6.20
2015,03,09,02,02,6.30
2015,03,09,02,03,6.30
2015,03,09,02,04,6.30
2015,03,09,02,05,6.30
2015,03,09,02,06,6.40
2015,03,09,02,07,6.40
2015,03,09,02,08,6.40
2015,03,09,02,09,6.40
2015,03,09,02,10,6.40
2015,03,09,02,11,6.40
2015,03,09,02,12,6.50
2015,03,09,02,13,6.50
2015,03,09,02,14,6.50
2015,03,09,02,15,6.50
2015,03,09,02,16,6.50
2015,03,09,02,17,6.60
2015,03,09,02,18,6.60
2015,03,09,02,19,6.60
2015,03,09,02,20,6.60
2015,03,09,02,21,6.60
2015,03,09,02,22,6.60
2015,03,09,02,23,6.60
2015,03,09,02,24,6.60
2015,03,09,02,25,6.50
2015,03,09,02,26,6.50
2015,03,09,02,27,6.50
2015,03,09,02,28,6.50
2015,03,09,02,29,6.50
2015,03,09,02,30,6.40
2015,03,09,02,31,6.40
2015,03,09,02,32,6.40
2015,03,09,02,33,6.30
2015,03,09,02,34,6.20
2015,03,09,02,35,6.20
2015,03,09,02,36,6.10
2015,03,09,02,37,6.10
2015,03,09,02,38,6.00
2015,03,09,02,39,6.00
2015,03,09,02,40,6.00
2015,03,09,02,41,5.90
2015,03,09,02,42,5.90
2015,03,09,02,43,5.80
2015,03,09,02,44,5.80
2015,03,09,02,45,5.80
2015,03,09,02,46,5.80
2015,03,09,02,47,5.80
2015,03,09,02,48,5.70
2015,03,09,02,49,5.70
2015,03,09,02,50,5.70
2015,03,09,02,51,5.60
2015,03,09,02,52,5.60
2015,03,09,02,53,5.60
2015,03,09,02,54,5.60
2015,03,09,02,55,5.60
2015,03,09,02,56,5.70
2015,03,09,02,57,5.70
2015,03,09,02,58,5.60
2015,03,09,02,59,5.60
2015,03,09,03,00,5.60
2015,03,09,03,01,5.60
2015,03,09,03,02,5.60
2015,03,09,03,03,5.70
2015,03,09,03,04,5.70
2015,03,09,03,05,5.70
2015,03,09,03,06,5.70
2015,03,09,03,07,5.60
2015,03,09,03,08,5.60
2015,03,09,03,09,5.60
2015,03,09,03,10,5.60
2015,03,09,03,11,5.60
2015,03,09,03,12,5.50
2015,03,09,03,13,5.50
2015,03,09,03,14,5.40
2015,03,09,03,15,5.40
2015,03,09,03,16,5.30
2015,03,09,03,17,5.30
2015,03,09,03,18,5.30
2015,03,09,03,19,5.30
2015,03,09,03,20,5.30
2015,03,09,03,21,5.40
2015,03,09,03,22,5.40
2015,03,09,03,23,5.40
2015,03,09,03,24,5.40
2015,03,09,03,25,5.40
2015,03,09,03,26,5.40
2015,03,09,03,27,5.40
2015,03,09,03,28,5.40
2015,03,09,03,29,5.40
2015,03,09,03,30,5.40
2015,03,09,03,31,5.40
2015,03,09,03,32,5.30
2015,03,09,03,33,5.20
2015,03,09,03,34,5.20
2015,03,09,03,35,5.10
2015,03,09,03,36,5.10
2015,03,09,03,37,5.10
2015,03,09,03,38,5.10
2015,03,09,03,39,5.10
2015,03,09,03,40,5.10
2015,03,09,03,41,5.10
2015,03,09,03,42,5.00
2015,03,09,03,43,5.00
2015,03,09,03,44,4.90
2015,03,09,03,45,4.90
2015,03,09,03,46,4.80
2015,03,09,03,47,4.80
2015,03,09,03,48,4.70
2015,03,09,03,49,4.70
2015,03,09,03,50,4.60
2015,03,09,03,51,4.60
2015,03,09,03,52,4.60
2015,03,09,03,53,4.60
2015,03,09,03,54,4.50
2015,03,09,03,55,4.60
2015,03,09,03,56,4.60
2015,03,09,03,57,4.60
2015,03,09,03,58,4.60
2015,03,09,03,59,4.60
2015,03,09,04,00,4.70
2015,03,09,04,01,4.70
2015,03,09,04,02,4.70
2015,03,09,04,03,4.70
2015,03,09,04,04,4.70
2015,03,09,04,05,4.70
2015,03,09,04,06,4.60
2015,03,09,04,07,4.60
2015,03,09,04,08,4.60
2015,03,09,04,09,4.60
2015,03,09,04,10,4.60
2015,03,09,04,11,4.60
2015,03,09,04,12,4.60
2015,03,09,04,13,4.50
2015,03,09,04,14,4.50
2015,03,09,04,15,4.40
2015,03,09,04,16,4.40
2015,03,09,04,17,4.30
2015,03,09,04,18,4.20
2015,03,09,04,19,4.10
2015,03,09,04,20,4.10
2015,03,09,04,21,4.10
2015,03,09,04,22,4.10
2015,03,09,04,23,4.10
2015,03,09,04,24,4.10
2015,03,09,04,25,4.20
2015,03,09,04,26,4.20
2015,03,09,04,27,4.20
2015,03,09,04,28,4.30
2015,03,09,04,29,4.40
2015,03,09,04,30,4.50
2015,03,09,04,31,4.60
2015,03,09,04,32,4.70
2015,03,09,04,33,4.70
2015,03,09,04,34,4.70
2015,03,09,04,35,4.80
2015,03,09,04,36,4.80
2015,03,09,04,37,4.80
2015,03,09,04,38,4.80
2015,03,09,04,39,4.80
2015,03,09,04,40,4.80
2015,03,09,04,41,4.80
2015,03,09,04,42,4.70
2015,03,09,04,43,4.60
2015,03,09,04,44,4.50
2015,03,09,04,45,4.40
2015,03,09,04,46,4.40
2015,03,09,04,47,4.40
2015,03,09,04,48,4.40
2015,03,09,04,49,4.40
2015,03,09,04,50,4.40
2015,03,09,04,51,4.40
2015,03,09,04,52,4.50
2015,03,09,04,53,4.50
2015,03,09,04,54,4.50
2015,03,09,04,55,4.50
2015,03,09,04,56,4.60
2015,03,09,04,57,4.60
2015,03,09,04,58,4.60
2015,03,09,04,59,4.60
2015,03,09,05,00,4.60
2015,03,09,05,01,4.60
2015,03,09,05,02,4.70
2015,03,09,05,03,4.70
2015,03,09,05,04,4.70
2015,03,09,05,05,4.70
2015,03,09,05,06,4.70
2015,03,09,05,07,4.70
2015,03,09,05,08,4.80
2015,03,09,05,09,4.80
2015,03,09,05,10,4.80
2015,03,09,05,11,4.80
2015,03,09,05,12,4.80
2015,03,09,05,13,4.80
2015,03,09,05,14,4.80
2015,03,09,05,15,4.80
2015,03,09,05,16,4.80
2015,03,09,05,17,4.80
2015,03,09,05,18,4.80
2015,03,09,05,19,4.80
2015,03,09,05,20,4.80
2015,03,09,05,21,4.80
2015,03,09,05,22,4.80
2015,03,09,05,23,4.80
2015,03,09,05,24,4.80
2015,03,09,05,25,4.80
2015,03,09,05,26,4.70
2015,03,09,05,27,4.70
2015,03,09,05,28,4.70
2015,03,09,05,29,4.70
2015,03,09,05,30,4.70
2015,03,09,05,31,4.70
2015,03,09,05,32,4.70
2015,03,09,05,33,4.70
2015,03,09,05,34,4.70
2015,03,09,05,35,4.70
2015,03,09,05,36,4.70
2015,03,09,05,37,4.70
2015,03,09,05,38,4.70
2015,03,09,05,39,4.60
2015,03,09,05,40,4.60
2015,03,09,05,41,4.60
2015,03,09,05,42,4.60
2015,03,09,05,43,4.60
2015,03,09,05,44,4.60
2015,03,09,05,45,4.60
2015,03,09,05,46,4.60
2015,03,09,05,47,4.50
2015,03,09,05,48,4.50
2015,03,09,05,49,4.50
2015,03,09,05,50,4.40
2015,03,09,05,51,4.40
2015,03,09,05,52,4.40
2015,03,09,05,53,4.30
2015,03,09,05,54,4.30
2015,03,09,05,55,4.30
2015,03,09,05,56,4.20
2015,03,09,05,57,4.20
2015,03,09,05,58,4.10
2015,03,09,05,59,4.10
2015,03,09,06,00,4.00
2015,03,09,06,01,3.90
2015,03,09,06,02,3.90
2015,03,09,06,03,3.80
2015,03,09,06,04,3.70
2015,03,09,06,05,3.60
2015,03,09,06,06,3.50
2015,03,09,06,07,3.40
2015,03,09,06,08,3.40
2015,03,09,06,09,3.30
2015,03,09,06,10,3.30
2015,03,09,06,11,3.30
2015,03,09,06,12,3.30
2015,03,09,06,13,3.30
2015,03,09,06,14,3.30
2015,03,09,06,15,3.30
2015,03,09,06,16,3.40
2015,03,09,06,17,3.30
2015,03,09,06,18,3.30
2015,03,09,06,19,3.30
2015,03,09,06,20,3.20
2015,03,09,06,21,3.20
2015,03,09,06,22,3.10
2015,03,09,06,23,3.10
2015,03,09,06,24,3.10
2015,03,09,06,25,3.20
2015,03,09,06,26,3.20
2015,03,09,06,27,3.20
2015,03,09,06,28,3.20
2015,03,09,06,29,3.20
2015,03,09,06,30,3.30
2015,03,09,06,31,3.30
2015,03,09,06,32,3.40
2015,03,09,06,33,3.50
2015,03,09,06,34,3.50
2015,03,09,06,35,3.60
2015,03,09,06,36,3.60
2015,03,09,06,37,3.60
2015,03,09,06,38,3.70
2015,03,09,06,39,3.70
2015,03,09,06,40,3.70
2015,03,09,06,41,3.70
2015,03,09,06,42,3.60
2015,03,09,06,43,3.60
2015,03,09,06,44,3.50
2015,03,09,06,45,3.50
2015,03,09,06,46,3.50
2015,03,09,06,47,3.40
2015,03,09,06,48,3.40
2015,03,09,06,49,3.30
2015,03,09,06,50,3.20
2015,03,09,06,51,3.20
2015,03,09,06,52,3.10
2015,03,09,06,53,3.10
2015,03,09,06,54,3.10
2015,03,09,06,55,3.00
2015,03,09,06,56,3.00
2015,03,09,06,57,2.90
2015,03,09,06,58,2.90
2015,03,09,06,59,2.90
2015,03,09,07,00,2.90
2015,03,09,07,01,2.90
2015,03,09,07,02,2.90
2015,03,09,07,03,3.00
2015,03,09,07,04,3.00
2015,03,09,07,05,3.10
2015,03,09,07,06,3.20
2015,03,09,07,07,3.20
2015,03,09,07,08,3.20
2015,03,09,07,09,3.30
2015,03,09,07,10,3.30
2015,03,09,07,11,3.20
2015,03,09,07,12,3.20
2015,03,09,07,13,3.20
2015,03,09,07,14,3.20
2015,03,09,07,15,3.20
2015,03,09,07,16,3.10
2015,03,09,07,17,3.10
2015,03,09,07,18,3.00
2015,03,09,07,19,3.00
2015,03,09,07,20,2.90
2015,03,09,07,21,2.90
2015,03,09,07,22,2.90
2015,03,09,07,23,3.00
2015,03,09,07,24,3.00
2015,03,09,07,25,3.10
2015,03,09,07,26,3.10
2015,03,09,07,27,3.20
2015,03,09,07,28,3.20
2015,03,09,07,29,3.30
2015,03,09,07,30,3.30
2015,03,09,07,31,3.40
2015,03,09,07,32,3.50
2015,03,09,07,33,3.50
2015,03,09,07,34,3.60
2015,03,09,07,35,3.50
2015,03,09,07,36,3.60
2015,03,09,07,37,3.60
2015,03,09,07,38,3.50
2015,03,09,07,39,3.50
2015,03,09,07,40,3.50
2015,03,09,07,41,3.50
2015,03,09,07,42,3.40
2015,03,09,07,43,3.30
2015,03,09,07,44,3.30
2015,03,09,07,45,3.20
2015,03,09,07,46,3.20
2015,03,09,07,47,3.20
2015,03,09,07,48,3.20
2015,03,09,07,49,3.20
2015,03,09,07,50,3.20
2015,03,09,07,51,3.20
2015,03,09,07,52,3.20
2015,03,09,07,53,3.20
2015,03,09,07,54,3.20
2015,03,09,07,55,3.20
2015,03,09,07,56,3.20
2015,03,09,07,57,3.20
2015,03,09,07,58,3.20
2015,03,09,07,59,3.20
2015,03,09,08,00,3.20
2015,03,09,08,01,3.20
2015,03,09,08,02,3.20
2015,03,09,08,03,3.10
2015,03,09,08,04,3.10
2015,03,09,08,05,3.10
2015,03,09,08,06,3.10
2015,03,09,08,07,3.10
2015,03,09,08,08,3.10
2015,03,09,08,09,3.10
2015,03,09,08,10,3.10
2015,03,09,08,11,3.10
2015,03,09,08,12,3.10
2015,03,09,08,13,3.10
2015,03,09,08,14,3.00
2015,03,09,08,15,3.00
2015,03,09,08,16,3.00
2015,03,09,08,17,3.00
2015,03,09,08,18,3.00
2015,03,09,08,19,3.00
2015,03,09,08,20,3.00
2015,03,09,08,21,3.00
2015,03,09,08,22,3.10
2015,03,09,08,23,3.10
2015,03,09,08,24,3.10
2015,03,09,08,25,3.10
2015,03,09,08,26,3.10
2015,03,09,08,27,3.10
2015,03,09,08,28,3.10
2015,03,09,08,29,3.10
2015,03,09,08,30,3.20
2015,03,09,08,31,3.20
2015,03,09,08,32,3.20
2015,03,09,08,33,3.20
2015,03,09,08,34,3.20
2015,03,09,08,35,3.20
2015,03,09,08,36,3.30
2015,03,09,08,37,3.30
2015,03,09,08,38,3.30
2015,03,09,08,39,3.30
2015,03,09,08,40,3.30
2015,03,09,08,41,3.30
2015,03,09,08,42,3.30
2015,03,09,08,43,3.40
2015,03,09,08,44,3.40
2015,03,09,08,45,3.40
2015,03,09,08,46,3.40
2015,03,09,08,47,3.40
2015,03,09,08,48,3.50
2015,03,09,08,49,3.50
2015,03,09,08,50,3.50
2015,03,09,08,51,3.50
2015,03,09,08,52,3.50
2015,03,09,08,53,3.60
2015,03,09,08,54,3.60
2015,03,09,08,55,3.60
2015,03,09,08,56,3.70
2015,03,09,08,57,3.70
2015,03,09,08,58,3.70
2015,03,09,08,59,3.70
2015,03,09,09,00,3.70
2015,03,09,09,01,3.80
2015,03,09,09,02,3.80
2015,03,09,09,03,3.80
2015,03,09,09,04,3.80
2015,03,09,09,05,3.90
2015,03,09,09,06,3.90
2015,03,09,09,07,3.90
2015,03,09,09,08,3.90
2015,03,09,09,09,3.90
2015,03,09,09,10,4.00
2015,03,09,09,11,4.00
2015,03,09,09,12,4.00
2015,03,09,09,13,4.10
2015,03,09,09,14,4.10
2015,03,09,09,15,4.20
2015,03,09,09,16,4.20
2015,03,09,09,17,4.20
2015,03,09,09,18,4.20
2015,03,09,09,19,4.20
2015,03,09,09,20,4.20
2015,03,09,09,21,4.30
2015,03,09,09,22,4.30
2015,03,09,09,23,4.30
2015,03,09,09,24,4.30
2015,03,09,09,25,4.30
2015,03,09,09,26,4.30
2015,03,09,09,27,4.30
2015,03,09,09,28,4.20
2015,03,09,09,29,4.20
2015,03,09,09,30,4.20
2015,03,09,09,31,4.20
2015,03,09,09,32,4.20
2015,03,09,09,33,4.20
2015,03,09,09,34,4.20
2015,03,09,09,35,4.20
2015,03,09,09,36,4.20
2015,03,09,09,37,4.20
2015,03,09,09,38,4.20
2015,03,09,09,39,4.20
2015,03,09,09,40,4.30
2015,03,09,09,41,4.30
2015,03,09,09,42,4.30
2015,03,09,09,43,4.30
2015,03,09,09,44,4.40
2015,03,09,09,45,4.40
2015,03,09,09,46,4.50
2015,03,09,09,47,4.50
2015,03,09,09,48,4.50
2015,03,09,09,49,4.60
2015,03,09,09,50,4.60
2015,03,09,09,51,4.70
2015,03,09,09,52,4.70
2015,03,09,09,53,4.80
2015,03,09,09,54,4.80
2015,03,09,09,55,4.80
2015,03,09,09,56,4.90
2015,03,09,09,57,4.90
2015,03,09,09,58,4.90
2015,03,09,09,59,5.00
2015,03,09,10,00,5.10
2015,03,09,10,01,5.10
2015,03,09,10,02,5.20
2015,03,09,10,03,5.20
2015,03,09,10,04,5.30
2015,03,09,10,05,5.30
2015,03,09,10,06,5.30
2015,03,09,10,07,5.30
2015,03,09,10,08,5.30
2015,03,09,10,09,5.30
2015,03,09,10,10,5.30
2015,03,09,10,11,5.30
2015,03,09,10,12,5.30
2015,03,09,10,13,5.30
2015,03,09,10,14,5.30
2015,03,09,10,15,5.40
2015,03,09,10,16,5.40
2015,03,09,10,17,5.40
2015,03,09,10,18,5.40
2015,03,09,10,19,5.50
2015,03,09,10,20,5.50
2015,03,09,10,21,5.50
2015,03,09,10,22,5.60
2015,03,09,10,23,5.60
2015,03,09,10,24,5.60
2015,03,09,10,25,5.60
2015,03,09,10,26,5.60
2015,03,09,10,27,5.60
2015,03,09,10,28,5.60
2015,03,09,10,29,5.70
2015,03,09,10,30,5.70
2015,03,09,10,31,5.70
2015,03,09,10,32,5.70
2015,03,09,10,33,5.70
2015,03,09,10,34,5.70
2015,03,09,10,35,5.70
2015,03,09,10,36,5.70
2015,03,09,10,37,5.70
2015,03,09,10,38,5.60
2015,03,09,10,39,5.50
2015,03,09,10,40,5.30
2015,03,09,10,41,5.20
2015,03,09,10,42,5.10
2015,03,09,10,43,5.10
2015,03,09,10,44,5.10
2015,03,09,10,45,5.00
2015,03,09,10,46,5.00
2015,03,09,10,47,4.90
2015,03,09,10,48,4.90
2015,03,09,10,49,4.90
2015,03,09,10,50,4.80
2015,03,09,10,51,4.80
2015,03,09,10,52,4.80
2015,03,09,10,53,4.80
2015,03,09,10,54,4.80
2015,03,09,10,55,4.80
2015,03,09,10,56,4.90
2015,03,09,10,57,4.90
2015,03,09,10,58,4.90
2015,03,09,10,59,4.90
2015,03,09,11,00,5.00
2015,03,09,11,01,5.00
2015,03,09,11,02,4.90
2015,03,09,11,03,5.00
2015,03,09,11,04,5.00
2015,03,09,11,05,5.00
2015,03,09,11,06,5.10
2015,03,09,11,07,5.10
2015,03,09,11,08,5.10
2015,03,09,11,09,5.00
2015,03,09,11,10,5.00
2015,03,09,11,11,5.00
2015,03,09,11,12,5.00
2015,03,09,11,13,5.00
2015,03,09,11,14,5.10
2015,03,09,11,15,5.10
2015,03,09,11,16,5.20
2015,03,09,11,17,5.20
2015,03,09,11,18,5.20
2015,03,09,11,19,5.20
2015,03,09,11,20,5.20
2015,03,09,11,21,5.30
2015,03,09,11,22,5.30
2015,03,09,11,23,5.30
2015,03,09,11,24,5.30
2015,03,09,11,25,5.40
2015,03,09,11,26,5.40
2015,03,09,11,27,5.50
2015,03,09,11,28,5.50
2015,03,09,11,29,5.50
2015,03,09,11,30,5.50
2015,03,09,11,31,5.60
2015,03,09,11,32,5.70
2015,03,09,11,33,5.70
2015,03,09,11,34,5.70
2015,03,09,11,35,5.80
2015,03,09,11,36,5.80
2015,03,09,11,37,5.80
2015,03,09,11,38,5.80
2015,03,09,11,39,5.80
2015,03,09,11,40,5.80
2015,03,09,11,41,5.90
2015,03,09,11,42,5.90
2015,03,09,11,43,5.80
2015,03,09,11,44,5.80
2015,03,09,11,45,5.80
2015,03,09,11,46,5.90
2015,03,09,11,47,5.90
2015,03,09,11,48,5.90
2015,03,09,11,49,6.00
2015,03,09,11,50,6.00
2015,03,09,11,51,6.10
2015,03,09,11,52,6.20
2015,03,09,11,53,6.20
2015,03,09,11,54,6.20
2015,03,09,11,55,6.20
2015,03,09,11,56,6.10
2015,03,09,11,57,6.20
2015,03,09,11,58,6.20
2015,03,09,11,59,6.20
2015,03,09,12,00,6.20
2015,03,09,12,01,6.30
2015,03,09,12,02,6.30
2015,03,09,12,03,6.40
2015,03,09,12,04,6.40
2015,03,09,12,05,6.40
2015,03,09,12,06,6.50
2015,03,09,12,07,6.50
2015,03,09,12,08,6.50
2015,03,09,12,09,6.50
2015,03,09,12,10,6.50
2015,03,09,12,11,6.50
2015,03,09,12,12,6.40
2015,03,09,12,13,6.50
2015,03,09,12,14,6.50
2015,03,09,12,15,6.50
2015,03,09,12,16,6.50
2015,03,09,12,17,6.60
2015,03,09,12,18,6.70
2015,03,09,12,19,6.70
2015,03,09,12,20,6.70
2015,03,09,12,21,6.80
2015,03,09,12,22,6.80
2015,03,09,12,23,6.90
2015,03,09,12,24,6.90
2015,03,09,12,25,6.90
2015,03,09,12,26,7.00
2015,03,09,12,27,7.00
2015,03,09,12,28,7.10
2015,03,09,12,29,7.10
2015,03,09,12,30,7.20
2015,03,09,12,31,7.30
2015,03,09,12,32,7.40
2015,03,09,12,33,7.40
2015,03,09,12,34,7.50
2015,03,09,12,35,7.60
2015,03,09,12,36,7.60
2015,03,09,12,37,7.60
2015,03,09,12,38,7.50
2015,03,09,12,39,7.50
2015,03,09,12,40,7.40
2015,03,09,12,41,7.40
2015,03,09,12,42,7.40
2015,03,09,12,43,7.30
2015,03,09,12,44,7.30
2015,03,09,12,45,7.40
2015,03,09,12,46,7.40
2015,03,09,12,47,7.40
2015,03,09,12,48,7.50
2015,03,09,12,49,7.50
2015,03,09,12,50,7.60
2015,03,09,12,51,7.70
2015,03,09,12,52,7.70
2015,03,09,12,53,7.70
2015,03,09,12,54,7.70
2015,03,09,12,55,7.80
2015,03,09,12,56,7.80
2015,03,09,12,57,7.80
2015,03,09,12,58,7.90
2015,03,09,12,59,8.00
2015,03,09,13,00,8.00
2015,03,09,13,01,8.10
2015,03,09,13,02,8.20
2015,03,09,13,03,8.20
2015,03,09,13,04,8.20
2015,03,09,13,05,8.30
2015,03,09,13,06,8.30
2015,03,09,13,07,8.40
2015,03,09,13,08,8.40
2015,03,09,13,09,8.50
2015,03,09,13,10,8.50
2015,03,09,13,11,8.50
2015,03,09,13,12,8.50
2015,03,09,13,13,8.60
2015,03,09,13,14,8.60
2015,03,09,13,15,8.60
2015,03,09,13,16,8.70
2015,03,09,13,17,8.80
2015,03,09,13,18,8.80
2015,03,09,13,19,8.90
2015,03,09,13,20,9.00
2015,03,09,13,21,9.10
2015,03,09,13,22,9.10
2015,03,09,13,23,9.20
2015,03,09,13,24,9.20
2015,03,09,13,25,9.20
2015,03,09,13,26,9.20
2015,03,09,13,27,9.10
2015,03,09,13,28,9.10
2015,03,09,13,29,9.10
2015,03,09,13,30,9.00
2015,03,09,13,31,9.00
2015,03,09,13,32,8.90
2015,03,09,13,33,8.90
2015,03,09,13,34,8.90
2015,03,09,13,35,8.90
2015,03,09,13,36,8.90
2015,03,09,13,37,8.90
2015,03,09,13,38,9.00
2015,03,09,13,39,9.00
2015,03,09,13,40,9.00
2015,03,09,13,41,8.90
2015,03,09,13,42,8.90
2015,03,09,13,43,8.80
2015,03,09,13,44,8.80
2015,03,09,13,45,8.80
2015,03,09,13,46,8.80
2015,03,09,13,47,8.80
2015,03,09,13,48,8.80
2015,03,09,13,49,8.90
2015,03,09,13,50,8.90
2015,03,09,13,51,8.90
2015,03,09,13,52,9.00
2015,03,09,13,53,9.00
2015,03,09,13,54,9.00
2015,03,09,13,55,9.00
2015,03,09,13,56,9.00
2015,03,09,13,57,8.90
2015,03,09,13,58,8.90
2015,03,09,13,59,8.90
2015,03,09,14,00,8.90
2015,03,09,14,01,8.90
2015,03,09,14,02,8.90
2015,03,09,14,03,8.90
2015,03,09,14,04,8.90
2015,03,09,14,05,8.90
2015,03,09,14,06,8.90
2015,03,09,14,07,9.00
2015,03,09,14,08,9.00
2015,03,09,14,09,9.10
2015,03,09,14,10,9.20
2015,03,09,14,11,9.20
2015,03,09,14,12,9.20
2015,03,09,14,13,9.30
2015,03,09,14,14,9.30
2015,03,09,14,15,9.30
2015,03,09,14,16,9.40
2015,03,09,14,17,9.40
2015,03,09,14,18,9.50
2015,03,09,14,19,9.50
2015,03,09,14,20,9.50
2015,03,09,14,21,9.60
2015,03,09,14,22,9.60
2015,03,09,14,23,9.60
2015,03,09,14,24,9.60
2015,03,09,14,25,9.60
2015,03,09,14,26,9.60
2015,03,09,14,27,9.60
2015,03,09,14,28,9.60
2015,03,09,14,29,9.60
2015,03,09,14,30,9.60
2015,03,09,14,31,9.60
2015,03,09,14,32,9.60
2015,03,09,14,33,9.70
2015,03,09,14,34,9.70
2015,03,09,14,35,9.80
2015,03,09,14,36,9.90
2015,03,09,14,37,9.90
2015,03,09,14,38,9.90
2015,03,09,14,39,9.90
2015,03,09,14,40,10.00
2015,03,09,14,41,10.00
2015,03,09,14,42,10.10
2015,03,09,14,43,10.10
2015,03,09,14,44,10.10
2015,03,09,14,45,10.10
2015,03,09,14,46,10.20
2015,03,09,14,47,10.20
2015,03,09,14,48,10.20
2015,03,09,14,49,10.30
2015,03,09,14,50,10.30
2015,03,09,14,51,10.30
2015,03,09,14,52,10.30
2015,03,09,14,53,10.30
2015,03,09,14,54,10.30
2015,03,09,14,55,10.30
2015,03,09,14,56,10.30
2015,03,09,14,57,10.30
2015,03,09,14,58,10.30
2015,03,09,14,59,10.30
2015,03,09,15,00,10.30
2015,03,09,15,01,10.30
2015,03,09,15,02,10.30
2015,03,09,15,03,10.40
2015,03,09,15,04,10.40
2015,03,09,15,05,10.40
2015,03,09,15,06,10.40
2015,03,09,15,07,10.40
2015,03,09,15,08,10.40
2015,03,09,15,09,10.30
2015,03,09,15,10,10.30
2015,03,09,15,11,10.30
2015,03,09,15,12,10.30
2015,03,09,15,13,10.30
2015,03,09,15,14,10.30
2015,03,09,15,15,10.40
2015,03,09,15,16,10.50
2015,03,09,15,17,10.60
2015,03,09,15,18,10.70
2015,03,09,15,19,10.70
2015,03,09,15,20,10.70
2015,03,09,15,21,10.70
2015,03,09,15,22,10.70
2015,03,09,15,23,10.80
2015,03,09,15,24,10.80
2015,03,09,15,25,10.80
2015,03,09,15,26,10.80
2015,03,09,15,27,10.80
2015,03,09,15,28,10.80
2015,03,09,15,29,10.80
2015,03,09,15,30,10.80
2015,03,09,15,31,10.80
2015,03,09,15,32,10.80
2015,03,09,15,33,10.80
2015,03,09,15,34,10.70
2015,03,09,15,35,10.60
2015,03,09,15,36,10.50
2015,03,09,15,37,10.40
2015,03,09,15,38,10.30
2015,03,09,15,39,10.30
2015,03,09,15,40,10.30
2015,03,09,15,41,10.30
2015,03,09,15,42,10.30
2015,03,09,15,43,10.20
2015,03,09,15,44,10.10
2015,03,09,15,45,10.10
2015,03,09,15,46,10.10
2015,03,09,15,47,10.00
2015,03,09,15,48,9.90
2015,03,09,15,49,9.90
2015,03,09,15,50,9.80
2015,03,09,15,51,9.80
2015,03,09,15,52,9.80
2015,03,09,15,53,9.80
2015,03,09,15,54,9.80
2015,03,09,15,55,9.80
2015,03,09,15,56,9.80
2015,03,09,15,57,9.80
2015,03,09,15,58,9.80
2015,03,09,15,59,9.80
2015,03,09,16,00,9.80
2015,03,09,16,01,9.80
2015,03,09,16,02,9.80
2015,03,09,16,03,9.80
2015,03,09,16,04,9.80
2015,03,09,16,05,9.70
2015,03,09,16,06,9.70
2015,03,09,16,07,9.70
2015,03,09,16,08,9.70
2015,03,09,16,09,9.70
2015,03,09,16,10,9.70
2015,03,09,16,11,9.70
2015,03,09,16,12,9.70
2015,03,09,16,13,9.70
2015,03,09,16,14,9.70
2015,03,09,16,15,9.70
2015,03,09,16,16,9.70
2015,03,09,16,17,9.70
2015,03,09,16,18,9.60
2015,03,09,16,19,9.60
2015,03,09,16,20,9.50
2015,03,09,16,21,9.50
2015,03,09,16,22,9.50
2015,03,09,16,23,9.50
2015,03,09,16,24,9.40
2015,03,09,16,25,9.40
2015,03,09,16,26,9.40
2015,03,09,16,27,9.50
2015,03,09,16,28,9.50
2015,03,09,16,29,9.50
2015,03,09,16,30,9.50
2015,03,09,16,31,9.50
2015,03,09,16,32,9.50
2015,03,09,16,33,9.60
2015,03,09,16,34,9.60
2015,03,09,16,35,9.60
2015,03,09,16,36,9.50
2015,03,09,16,37,9.50
2015,03,09,16,38,9.50
2015,03,09,16,39,9.50
2015,03,09,16,40,9.50
2015,03,09,16,41,9.50
2015,03,09,16,42,9.50
2015,03,09,16,43,9.60
2015,03,09,16,44,9.60
2015,03,09,16,45,9.60
2015,03,09,16,46,9.70
2015,03,09,16,47,9.70
2015,03,09,16,48,9.70
2015,03,09,16,49,9.70
2015,03,09,16,50,9.70
2015,03,09,16,51,9.70
2015,03,09,16,52,9.70
2015,03,09,16,53,9.70
2015,03,09,16,54,9.70
2015,03,09,16,55,9.70
2015,03,09,16,56,9.70
2015,03,09,16,57,9.70
2015,03,09,16,58,9.80
2015,03,09,16,59,9.80
2015,03,09,17,00,9.80
2015,03,09,17,01,9.80
2015,03,09,17,02,9.80
2015,03,09,17,03,9.80
2015,03,09,17,04,9.80
2015,03,09,17,05,9.80
2015,03,09,17,06,9.80
2015,03,09,17,07,9.80
2015,03,09,17,08,9.80
2015,03,09,17,09,9.80
2015,03,09,17,10,9.80
2015,03,09,17,11,9.80
2015,03,09,17,12,9.80
2015,03,09,17,13,9.80
2015,03,09,17,14,9.90
2015,03,09,17,15,9.90
2015,03,09,17,16,9.90
2015,03,09,17,17,10.00
2015,03,09,17,18,10.00
2015,03,09,17,19,10.00
2015,03,09,17,20,10.10
2015,03,09,17,21,10.10
2015,03,09,17,22,10.10
2015,03,09,17,23,10.20
2015,03,09,17,24,10.20
2015,03,09,17,25,10.20
2015,03,09,17,26,10.20
2015,03,09,17,27,10.20
2015,03,09,17,28,10.20
2015,03,09,17,29,10.20
2015,03,09,17,30,10.30
2015,03,09,17,31,10.30
2015,03,09,17,32,10.20
2015,03,09,17,33,10.20
2015,03,09,17,34,10.20
2015,03,09,17,35,10.20
2015,03,09,17,36,10.20
2015,03,09,17,37,10.20
2015,03,09,17,38,10.20
2015,03,09,17,39,10.20
2015,03,09,17,40,10.20
2015,03,09,17,41,10.20
2015,03,09,17,42,10.20
2015,03,09,17,43,10.10
2015,03,09,17,44,10.10
2015,03,09,17,45,10.10
2015,03,09,17,46,10.00
2015,03,09,17,47,10.00
2015,03,09,17,48,9.90
2015,03,09,17,49,9.90
2015,03,09,17,50,9.80
2015,03,09,17,51,9.80
2015,03,09,17,52,9.80
2015,03,09,17,53,9.80
2015,03,09,17,54,9.80
2015,03,09,17,55,9.80
2015,03,09,17,56,9.80
2015,03,09,17,57,9.90
2015,03,09,17,58,9.90
2015,03,09,17,59,9.80
2015,03,09,18,00,9.80
2015,03,09,18,01,9.80
2015,03,09,18,02,9.80